Regional Weather Roundup
Issued by NWS Charleston, SC

Current Version | Previous Version | Graphics & Text | Print | Product List | Glossary On
Versions: 1 2 3 4 5 6 7 8 9 10 11 12 13 14 15 16 17 18 19 20 21 22 23 24 25 26 27 28 29 30 31 32 33 34 35 36 37 38 39 40 41 42 43 44 45 46 47 48 49 50
053
ASUS42 KCHS 210512
RWRCHS

REGIONAL WEATHER ROUNDUP
NATIONAL WEATHER SERVICE CHARLESTON SC
100 AM EDT MON AUG 21 2017

NOTE: "FAIR" INDICATES FEW OR NO CLOUDS BELOW 12,000 FEET WITH NO
SIGNIFICANT WEATHER AND/OR OBSTRUCTIONS TO VISIBILITY.

NOT ALL STATIONS ARE QUALITY CONTROLLED. USE DATA WITH CAUTION...
ESPECIALLY DEWPOINT OBSERVATIONS.

SCZ027-030-031-034>040-042>050-210600-
...SOUTHEAST SOUTH CAROLINA...

CITY           SKY/WX    TMP DP  RH WIND       PRES   REMARKS
N CHARLESTON   MOCLDY    81  78  91 CALM      30.13S
WATERFRONT PRK   N/A     84  79  85 VRB2      29.98S HX  96
JOHNS ISLAND   FAIR      81  79  94 CALM      30.14R
PINOPOLIS        N/A     81  79  94 CALM      30.07S
MONCKS CORNER  FAIR      75  75 100 CALM      30.14S
SUMMERVILLE    FAIR      77  77 100 CALM      30.15S
BEAUFORT MCAS  PTCLDY    84  81  90 CALM      30.13S HX  99
BEAUFORT ARPT  FAIR      81  77  89 CALM      30.13R
HILTON HEAD IS CLOUDY    84  77  79 VRB5      30.14R HX  94
WALTERBORO     CLOUDY    77  75  94 CALM      30.14F
ALLENDALE      NOT AVBL

...SOUTHERN MIDLANDS AND PEE DEE...

CITY           SKY/WX    TMP DP  RH WIND       PRES   REMARKS
GEORGETOWN     FAIR      77  77 100 CALM      30.15S
KINGSTREE      FAIR      73  73 100 CALM      30.15R
ORANGEBURG     PTCLDY    78  74  87 CALM      30.15S
BARNWELL       FAIR      81  79  94 CALM      30.15R
AIKEN          FAIR      77  72  83 SE3       30.19R
MANNING        FAIR      77  73  88 CALM      30.15R
COLUMBIA       PTCLDY    82  74  76 CALM      30.14R
SUMTER         PTCLDY    80  74  81 CALM      30.13S
FLORENCE       PTCLDY    78  76  93 CALM      30.15S
MYRTLE BEACH   NOT AVBL
N MYRTLE BEACH MOCLDY    83  78  85 S5        30.14S HX  93

$$

GAZ063-065-086>088-099>101-113>116-118-119-134>141-150-210600-
...SOUTHEAST GEORGIA...

CITY           SKY/WX    TMP DP  RH WIND       PRES   REMARKS
SAVANNAH ARPT  MOCLDY    82  77  84 SE3       30.13S HX  90
HUNTER AAF     MOCLDY    82  77  84 SE3       30.10S HX  90
FORT STEWART   MOCLDY    77  74  92 CALM      30.11R
STATESBORO     MOCLDY    79  77  95 CALM      30.13S
SYLVANIA       CLOUDY    78  78 100 CALM      30.14S
CLAXTON        FAIR      78  76  95 CALM      30.13S

...CSRA...CENTRAL AND FAR SOUTHEAST GEORGIA...

CITY           SKY/WX    TMP DP  RH WIND       PRES   REMARKS
THOMSON        PTCLDY    79  74  86 SW3       30.19S
AUGUSTA-BUSH   LGT RAIN  79  76  90 CALM      30.13S
AUGUSTA-DANIEL CLEAR     81  74  79 SE5       30.15S
SWAINSBORO     FAIR      79  75  89 S5        30.15R
VIDALIA        CLOUDY    79  73  83 CALM      30.14S
EASTMAN        FAIR      80  64  57 S5        30.15S
HAZLEHURST     FAIR      79  67  66 CALM      30.12S
ALMA           CLOUDY    75  72  90 CALM      30.13S
WAYCROSS       PTCLDY    76  73  90 CALM      30.13S
JESUP          FAIR      75  72  88 CALM      30.13S
BAXLEY         FAIR      73  73 100 CALM      30.13S
BRUNSWICK      MOCLDY    81  75  83 CALM      30.13S
SAINT SIMONS   MOCLDY    85  78  80 S8        30.12R HX  96

$$

SCZ027-028-034-036>038-045-046-048>050-GAZ119-141-210600-
...LAKE AND SUPPLEMENTAL COASTAL OBSERVATIONS...

STATION/POSITION TIME  TEMP    WIND        PRES    WAVE   SWELL
                       AIR SEA DIR/SP/G            HT/PER HT/PER/DIR
                 (UTC) (F)     (DEG/KT/KT) (MB)    (FT/S) (FT/S/D)
WINYAH BAY       0345   82     350/  1     1021.0
LAKE MURRAY      0420   84     190/  6/  9 1019.6
ACE BASIN NERRS  0345   83        CALM     1020.0
FORT PULASKI     0442   83 87  160/  2/  3 1020.5S
SAPELO ISLAND    0400   83        CALM     1020.0

$$

ANZ835-935-AMZ111-154-330-350-352-354-370-450-454-472-210600-
...C-MAN AND BUOY OBSERVATIONS...

STATION/POSITION TIME  TEMP    WIND        PRES    WAVE   SWELL
                       AIR SEA DIR/SP/G            HT/PER HT/PER/DIR
                 (UTC) (F)     (DEG/KT/KT) (MB)    (FT/S) (FT/S/D)
BUOY 41004       0450   84 85  170/  4/  6 1020.0S   3/ 9   3/140/ 9
BUOY 41008       0350   84 85  150/ 12/ 16 1019.5    2/ 9   2/100/ 9
FOLLY BEACH CMAN 0400   85     180/  6/  7 1021.0R
CAPERS NEARSHORE 0408   83 87  190/  8/ 10 1020.3R
FRIPP NEARSHORE  0408   85     170/  8/ 12 1020.0R


STATION/POSITION TIME  TEMP    WIND        PRES    WAVE   SWELL
                       AIR SEA DIR/SP/G            HT/PER HT/PER/DIR
                 (UTC) (F)     (DEG/KT/KT) (MB)    (FT/S) (FT/S/D)
5E ST. MARYS GA  0430      84                N/A     2/ 9
FRYING PAN BUOY  0450   84 85  180/  8/ 12 1020.4S   2/ 8   2/120/ 8
BUOY 41025       0450   83 85   CALM  /  2 1021.4R   2/ 8   2/110/ 8
CAPE LOOKOUT NC  0400   81      70/  3/  3 1020.8S
BUOY 41002       0450   81 85   90/  4/  6 1021.3F   3/ 7   3/110/ 7
BUOY 41010       0450   81 86   90/  8/ 10 1019.6F   2/ 9   2/110/ 9
ST AUGUSTINE FL  0500   80 83  250/  3/  4 1020.2S


$$




USA.gov is the U.S. government's official web portal to all federal, state and local government web resources and services.